User: anonymous   Login
Location: Slidell
(30.2789°N, 89.7378°W)
Time: 18:16:04
(UTC-06:00)
Language:

Cosmos 2360 Rocket - Orbit

View from above orbital plane
View from above orbital plane
View from above satellite
View from above satellite

Ground track
Ground track

The orbit data is extracted from the following two-line orbital elements,

1 25407U 98045B   17055.81022156 -.00000156  00000-0 -55266-4 0  9999
2 25407  71.0089 277.5896 0007253   1.1394 358.9744 14.15756923960271
Epoch (UTC): 24 February 2017 19:26:43
Eccentricity: 0.0007253
inclination: 71.0089°
perigee height: 834 km
apogee height: 845 km
right ascension of ascending node: 277.5896°
argument of perigee: 1.1394°
revolutions per day: 14.15756923
mean anomaly at epoch: 358.9744°
orbit number at epoch: 96027

The dashed part of the orbit path shows where the satellite is in the earth's shadow,  

DLR